Sussex, NJ

7:39 AM EDT on July 22, 2017 (GMT -0400)
Sussex

Weather History for KFWN - February, 2014

Change the Weather History Date:

Friday, February 21, 2014

  Actual Average Record
Temperature  
Mean Temperature 34 °F -  
Max Temperature 41 °F 40 °F 67 °F (1953)
Min Temperature 26 °F 17 °F -11 °F (2015)
Degree Days  
Heating Degree Days 32    
Moisture  
Dew Point 34 °F    
Average Humidity 96    
Maximum Humidity 100    
Minimum Humidity 81    
Precipitation  
Precipitation 0.22 in - - ()
Sea Level Pressure  
Sea Level Pressure 29.83 in    
Wind  
Wind Speed 1 mph (NNE)    
Max Wind Speed 6 mph    
Max Gust Speed 20 mph    
Visibility 4 miles    
Events Fog , Rain , Thunderstorm    
Averages and records for this station are not official NWS values.
T = Trace of Precipitation, MM = Missing Value Source: NWS Daily Summary

Daily Weather History Graph

Daily Weather History Graph

Search for Another Location

Airport or City:

Trip Planner

Search our weather history database for the weather conditions in past years. The results will help you decide how hot, cold, wet, or windy it might be!

Date:

Astronomy

Feb. 21, 2014 Rise Set
Actual Time 6:44 AM EST 5:39 PM EST
Civil Twilight 6:16 AM EST 6:07 PM EST
Nautical Twilight 5:44 AM EST 6:39 PM EST
Astronomical Twilight 5:12 AM EST 7:11 PM EST
Moon No Moon Rise 10:03 AM EST (2/21)
Length of Visible Light 11h 51m
Length of Day
10h 55m
Waning Gibbous, 61% of the Moon is Illuminated
Feb 21
Waning Gibbous
Feb 22
Last Quarter
Mar 1
New
Mar 8
First Quarter
Mar 16
Full

Hourly Weather History & Observations

Time (EST) Temp. Windchill Dew Point Humidity Pressure Visibility Wind Dir Wind Speed Gust Speed Precip Events Conditions
12:25 AM 35.1 °F - 30.0 °F 82% 30.01 in 10.0 mi Calm Calm - N/A   Overcast
12:53 AM 35.1 °F - 30.0 °F 82% 30.00 in 10.0 mi Calm Calm - N/A   Overcast
1:18 AM 35.1 °F - 30.0 °F 82% 29.97 in 10.0 mi Calm Calm - N/A   Overcast
1:32 AM 34.0 °F - 30.0 °F 85% 29.97 in 10.0 mi Calm Calm - N/A   Overcast
1:50 AM 35.6 °F 32.8 °F 30.2 °F 81% 29.96 in 9.0 mi ENE 3.5 mph - N/A   Overcast
1:53 AM 35.1 °F 32.2 °F 30.9 °F 85% 29.97 in 9.0 mi NE 3.5 mph - N/A   Overcast
2:45 AM 35.1 °F - 34.0 °F 96% 29.95 in 2.5 mi Calm Calm - N/A   Overcast
2:53 AM 35.1 °F - 34.0 °F 96% 29.95 in 2.0 mi Calm Calm - N/A   Overcast
3:02 AM 35.1 °F - 34.0 °F 96% 29.94 in 1.5 mi Calm Calm - N/A   Overcast
3:09 AM 35.1 °F - 34.0 °F 96% 29.93 in 1.0 mi Calm Calm - N/A   Overcast
3:17 AM 34.0 °F - 33.1 °F 96% 29.93 in 0.5 mi Calm Calm - N/A Fog Fog
3:53 AM 34.0 °F - 33.1 °F 96% 29.94 in 0.2 mi Calm Calm - N/A Fog Fog
4:53 AM 34.0 °F - 33.1 °F 96% 29.94 in 0.2 mi Calm Calm - N/A Fog Fog
5:53 AM 34.0 °F 31.0 °F 34.0 °F 100% 29.93 in 0.5 mi NE 3.5 mph - N/A Fog Fog
6:53 AM 35.1 °F 30.1 °F 35.1 °F 100% 29.92 in 0.8 mi NE 5.8 mph - N/A   Overcast
7:53 AM 35.1 °F 30.1 °F 35.1 °F 100% 29.91 in 1.0 mi NNE 5.8 mph - N/A   Overcast
8:53 AM 36.0 °F 33.3 °F 36.0 °F 100% 29.88 in 1.2 mi NE 3.5 mph - N/A   Overcast
9:14 AM 36.0 °F 33.3 °F 35.1 °F 97% 29.87 in 1.5 mi NE 3.5 mph - N/A   Overcast
9:53 AM 36.0 °F 33.3 °F 36.0 °F 100% 29.86 in 1.5 mi NE 3.5 mph - N/A   Overcast
10:10 AM 36.0 °F - 36.0 °F 100% 29.84 in 2.5 mi Calm Calm - N/A   Overcast
10:20 AM 36.0 °F - 36.0 °F 100% 29.85 in 3.0 mi Calm Calm - N/A   Overcast
10:48 AM 35.6 °F 32.8 °F 35.6 °F 100% 29.83 in 5.0 mi North 3.5 mph - N/A   Overcast
10:53 AM 36.0 °F - 35.1 °F 97% 29.83 in 5.0 mi Calm Calm - N/A   Overcast
11:00 AM 36.0 °F - 35.1 °F 97% 29.81 in 4.0 mi Calm Calm - N/A   Overcast
11:51 AM 37.4 °F 34.9 °F 35.6 °F 93% 29.77 in 2.5 mi North 3.5 mph - N/A   Overcast
11:53 AM 37.0 °F 34.5 °F 36.0 °F 96% 29.78 in 2.5 mi NE 3.5 mph - N/A   Overcast
12:53 PM 37.0 °F 32.4 °F 36.0 °F 96% 29.72 in 2.0 mi NNE 5.8 mph - N/A   Overcast
1:31 PM 37.0 °F 32.4 °F 37.0 °F 100% 29.67 in 1.8 mi NE 5.8 mph - N/A   Overcast
1:53 PM 37.0 °F 34.5 °F 37.0 °F 100% 29.67 in 1.2 mi North 3.5 mph - N/A   Overcast
2:22 PM 36.0 °F 33.3 °F 36.0 °F 100% 29.65 in 1.8 mi Variable 3.5 mph - 0.08 in Rain Light Rain
2:28 PM 37.0 °F 33.3 °F 36.0 °F 96% 29.66 in 3.0 mi North 4.6 mph - 0.08 in Rain Light Rain
2:42 PM 37.0 °F 34.5 °F 37.0 °F 100% 29.68 in 3.0 mi Variable 3.5 mph - 0.09 in Rain , Thunderstorm Light Rain
2:53 PM 41.0 °F 39.0 °F 39.0 °F 93% 29.70 in 2.5 mi Variable 3.5 mph 19.6 mph 0.12 in Rain , Thunderstorm Rain
2:59 PM 39.9 °F - 39.9 °F 100% 29.70 in 2.5 mi Calm Calm - 0.02 in Rain Rain
3:13 PM 37.9 °F - 37.9 °F 100% 29.70 in 1.5 mi Calm Calm - 0.04 in Rain Light Rain
3:17 PM 37.9 °F - 37.9 °F 100% 29.70 in 0.8 mi Calm Calm - 0.06 in Rain Rain
3:35 PM 37.9 °F - 37.9 °F 100% 29.72 in 1.5 mi Calm Calm - 0.08 in Rain Light Rain
3:53 PM 37.0 °F 34.5 °F 37.0 °F 100% 29.74 in 0.8 mi Variable 3.5 mph - 0.09 in   Overcast
4:53 PM 39.0 °F - 37.9 °F 96% 29.74 in 0.5 mi Calm Calm - 0.01 in Fog Fog
5:00 PM 37.9 °F - 37.9 °F 100% 29.72 in 1.5 mi Calm Calm - N/A   Overcast
5:10 PM 37.0 °F - 37.0 °F 100% 29.74 in 0.8 mi Calm Calm - N/A   Overcast
5:18 PM 37.9 °F - 37.0 °F 97% 29.74 in 1.5 mi Calm Calm - N/A   Overcast
5:23 PM 37.9 °F - 37.9 °F 100% 29.73 in 3.0 mi Calm Calm - N/A   Overcast
5:53 PM 37.9 °F 35.5 °F 37.0 °F 97% 29.75 in 10.0 mi SSW 3.5 mph - N/A   Overcast
6:53 PM 39.0 °F 35.7 °F 36.0 °F 89% 29.80 in 10.0 mi SW 4.6 mph - N/A   Clear
7:53 PM 34.0 °F 31.0 °F 32.0 °F 92% 29.83 in 9.0 mi SW 3.5 mph - N/A   Clear
8:53 PM 30.9 °F - 30.9 °F 100% 29.84 in 9.0 mi Calm Calm - N/A   Clear
9:53 PM 30.0 °F 26.5 °F 28.9 °F 96% 29.86 in 6.0 mi WSW 3.5 mph - N/A   Clear
10:53 PM 28.9 °F - 28.0 °F 96% 29.88 in 7.0 mi Calm Calm - N/A   Clear
11:43 PM 26.1 °F - 25.0 °F 96% 29.89 in 1.8 mi Calm Calm - N/A   Clear
11:53 PM 27.0 °F - 26.1 °F 96% 29.90 in 3.0 mi Calm Calm - N/A   Clear